Skip Page Navigation
NASA JPL Caltech
NASA Logo - Jet Propulsion Laboratory + View the NASA Portal
+ Center for Near-Earth Object Studies
JPL Home Earth Solar System Stars & Galaxies Technology
JPL Solar System Dynamics
BODIES ORBITS EPHEMERIDES TOOLS PHYSICAL DATA DISCOVERY FAQ SITE MAP
IMPORTANT: The SSD Announcement email list is now available. Major changes are coming in the near future, including possible hostname and/or URL changes. To be notified of such changes, subscribe to this email list.

Please visit this page for more details.


JPL Small-Body Database Browser
Search: [ help ]  
5139 Rumoi (1990 VH4)
Classification: Main-belt Asteroid          SPK-ID: 2005139
Ephemeris | Orbit Diagram | Orbital Elements | Mission Design | Physical Parameters | Discovery Circumstances | Close-Approach Data ]

[ show orbit diagram ]
Orbital Elements at Epoch 2458600.5 (2019-Apr-27.0) TDB
Reference: JPL 34 (heliocentric ecliptic J2000)
 Element Value Uncertainty (1-sigma)   Units 
e .03163507937964426 3.1568e-08  
a 2.854268229583853 1.2825e-08 au
q 2.763973227570171 8.9277e-08 au
i 2.850554599695246 3.5853e-06 deg
node 57.04051770036071 7.3532e-05 deg
peri 224.9950561275591 9.5939e-05 deg
M 87.96203674321799 6.2107e-05 deg
tp 2458170.138534113856
(2018-Feb-20.63853411)
0.00030411 TDB
period 1761.329471841239
4.82
1.1872e-05
3.25e-08
d
yr
n .2043910612724076 1.3776e-09 deg/d
Q 2.944563231597535 1.3231e-08 au
  Orbit Determination Parameters
   # obs. used (total)      2671  
   data-arc span      23012 days (63.00 yr)  
   first obs. used      1956-10-29  
   last obs. used      2019-10-31  
   planetary ephem.      DE431  
   SB-pert. ephem.      SB431-N16  
   condition code      0  
   norm. resid. RMS      .45085  
   source      ORB  
   producer      Otto Matic  
   solution date      2019-Nov-07 02:43:01  

Additional Information
 Earth MOID = 1.74791 au 
 Jupiter MOID = 2.08498 au 
 T_jup = 3.302 
[ show covariance matrix ]

Ephemeris | Orbit Diagram | Orbital Elements | Mission Design | Physical Parameters | Discovery Circumstances | Close-Approach Data ]

Physical Parameter Table
Parameter Symbol Value Units Sigma Reference Notes
absolute magnitude H 12.0   n/a MPO332867  
diameter diameter 11.956 km 0.280 urn:nasa:pds:neowise_diameters_albedos::2.0[mainbelt] (http://adsabs.harvard.edu/abs/2011ApJ...741...68M)  
rotation period rot_per 3.257 h n/a LCDB (Rev. 2019-January); Warner et al., 2009 Published Reference List:
[Cooney, Jr.; W.R.; Gross, J.; Terrell, D.; Reddy, V.; Dyvig, R. (2007) Minor Planet Bull. 34, 47-48.]
geometric albedo albedo 0.409   0.042 urn:nasa:pds:neowise_diameters_albedos::2.0[mainbelt] (http://adsabs.harvard.edu/abs/2011ApJ...741...68M)  

5139 Rumoi (1990 VH4)          Discovered 1990-Nov-13 by Mukai and Takeishi at Kagoshima
Reference: DISCOVERY.DBLast Updated: 2003-08-29

[ show close-approach data ]
Alternate Designations
 1990 VH4 = 1956 UM = 1959 JH = 1973 FG2 = 1989 QK1 
Ephemeris | Orbit Diagram | Orbital Elements | Mission Design | Physical Parameters | Discovery Circumstances | Close-Approach Data ]
ABOUT SSD CREDITS/AWARDS PRIVACY/COPYRIGHT GLOSSARY LINKS
FirstGov
(server date/time)  
NASA Home Page
Site Manager:   Ryan S. Park
Webmaster  Alan B. Chamberlin